Regional Weather Roundup
Issued by NWS Goodland, KS

Home | Current Version | Previous Version | Text Only | Print | Product List | Glossary Off
Versions: 1 2 3 4 5 6 7 8 9 10 11 12 13 14 15 16 17 18 19 20 21 22 23 24 25 26 27 28 29 30 31 32 33 34 35 36 37 38 39 40 41 42 43 44 45 46 47 48 49 50

683
ASUS43 KGLD 271208
RWRGLD

GOODLAND FORECAST AREA HOURLY WEATHER ROUNDUP
NATIONAL WEATHER SERVICE GOODLAND KS
600 AM MDT WED JUL 27 2016

...OFFICIAL OBSERVATIONS...

CITY           SKY/WX    TMP DP  RH WIND       PRES   REMARKS
GOODLAND KS    CLEAR     61  58  90 SE7       30.11S
HILL CITY KS   CLOUDY    66  60  81 S7        30.03F
IMPERIAL NEB   PTCLDY    60  57  89 N3        30.13S
MCCOOK NEB     CLEAR     61  58  90 W9        30.08R
AKRON CO       CLEAR     62  56  80 E9        30.18R
BURLINGTON CO  CLOUDY    63  58  83 E12       30.15R
LIMON CO       NOT AVBL
$$

...UNOFFICIAL OBSERVATIONS...

CITY           SKY/WX    TMP DP  RH WIND       PRES   REMARKS
COLBY KS       CLEAR     63  63 100 S6        30.09F
LENORA KS        N/A     66  32  28 MISG        N/A
NORTON KS      CLEAR     61  54  77 SW6       30.03S
KIT CARSON CO    N/A     62  55  77 CALM        N/A
YUMA CO          N/A     61  59  92 SE5         N/A
$$




USA.gov is the U.S. government's official web portal to all federal, state and local government web resources and services.